Location: *
(50.0228°S, 177.2688°W)
Time: 13:38:40
(UTC+00:00)

SMAP - Pass Details

Date: 07 April 2020
Orbit: 681 x 683 km, 98.1° (Epoch: 03 June)

Event Time Altitude Azimuth Distance (km) Brightness Sun altitude
Rises 06:17:40 0° 166° (SSE) 3,089 6.3 -9.6°
Reaches altitude 10° 06:19:56 10° 165° (SSE) 2,166 5.5 -10.0°
Maximum altitude 06:24:42 85° 78° (ENE) 703 3.1 -10.8°
Drops below altitude 10° 06:29:24 10° 346° (NNW) 2,139 5.8 -11.5°
Sets 06:31:37 0° 345° (NNW) 3,047 6.6 -11.9°
